EW6819 Weather Reports


Display with metric or nautical units.
time (UTC)temp
F
wind
direction
speed
MPH
gust
MPH
rain 1hr
in
rain 24hr
in
rain mn
in
humidity
%
barometer
mb
20260509054003 45 252 2.0 4.0 0.00 0.10 0.00 50 1009.4
20260509053503 45 234 2.0 4.0 0.00 0.10 0.00 51 1009.5
20260509053003 45 239 2.0 4.0 0.00 0.10 0.00 51 1009.5
20260509052503 46 254 1.0 3.0 0.00 0.10 0.00 52 1009.7
20260509052214 46 258 1.0 4.0 0.00 0.10 0.00 51 1009.7
20260509051503 46 255 2.0 4.0 0.00 0.10 0.00 51 1009.7
20260509051003 46 249 2.0 4.0 0.00 0.10 0.00 51 1009.8
20260509050503 46 242 2.0 5.0 0.00 0.10 0.00 52 1009.9
20260509050003 46 254 2.0 5.0 0.00 0.10 0.00 51 1009.9
20260509045503 45 265 2.0 4.0 0.00 0.10 0.00 52 1010.0
20260509045003 45 263 2.0 4.0 0.00 0.10 0.00 53 1009.9
20260509044503 45 263 2.0 4.0 0.00 0.10 0.00 53 1010.0
20260509044003 45 265 2.0 4.0 0.00 0.10 0.00 54 1010.0
20260509043712 45 265 2.0 4.0 0.00 0.10 0.00 54 1009.9
20260509043003 44 267 2.0 4.0 0.00 0.10 0.00 56 1009.9
20260509042503 43 268 1.0 4.0 0.00 0.10 0.00 58 1010.0
20260509042003 42 269 1.0 4.0 0.00 0.10 0.00 58 1010.0
20260509041503 42 268 1.0 4.0 0.00 0.10 0.00 57 1009.9
20260509041003 42 267 2.0 4.0 0.00 0.10 0.00 58 1010.0
20260509040503 42 267 2.0 4.0 0.00 0.10 0.00 58 1010.1
20260509040004 41 267 2.0 4.0 0.00 0.10 0.00 59 1010.0
20260509035503 41 267 2.0 3.0 0.00 0.10 0.10 59 1010.1
20260509035003 41 267 2.0 3.0 0.00 0.10 0.10 59 1010.0
20260509034712 41 267 2.0 3.0 0.00 0.10 0.10 59 1010.1
20260509034003 41 269 2.0 3.0 0.00 0.10 0.10 58 1010.0
20260509033503 41 270 2.0 3.0 0.00 0.10 0.10 58 1010.1
20260509033213 41 271 2.0 3.0 0.00 0.10 0.10 58 1010.0
20260509032503 41 269 2.0 4.0 0.00 0.10 0.10 58 1010.2
20260509032213 41 269 2.0 6.0 0.00 0.10 0.10 58 1010.1
20260509031714 41 270 2.0 6.0 0.00 0.10 0.10 58 1010.2
20260509031003 41 270 2.0 4.0 0.00 0.10 0.10 58 1010.1
20260509030503 41 271 2.0 4.0 0.00 0.10 0.10 58 1010.2
20260509030213 41 271 2.0 4.0 0.00 0.10 0.10 57 1010.3
20260509025503 42 270 2.0 3.0 0.00 0.10 0.10 57 1010.3
20260509025003 42 270 2.0 3.0 0.00 0.10 0.10 57 1010.2
20260509024503 42 271 2.0 4.0 0.00 0.10 0.10 57 1010.3
20260509024003 42 266 2.0 4.0 0.00 0.10 0.10 56 1010.3
20260509023503 43 263 2.0 4.0 0.00 0.10 0.10 55 1010.4
20260509023003 43 263 3.0 4.0 0.00 0.10 0.10 56 1010.4
20260509022503 43 263 3.0 4.0 0.00 0.10 0.10 55 1010.4
20260509022003 43 264 3.0 4.0 0.00 0.10 0.10 55 1010.4
20260509021503 44 265 3.0 4.0 0.00 0.10 0.10 54 1010.4
20260509021003 44 264 3.0 4.0 0.00 0.10 0.10 53 1010.4
20260509020503 44 264 3.0 4.0 0.00 0.10 0.10 53 1010.6
20260509020003 44 265 2.0 3.0 0.00 0.10 0.10 52 1010.6
20260509015503 44 265 2.0 3.0 0.00 0.10 0.10 53 1010.5
20260509015003 44 266 2.0 3.0 0.00 0.10 0.10 53 1010.6
20260509014713 44 266 2.0 3.0 0.00 0.10 0.10 53 1010.5
20260509014003 45 267 2.0 4.0 0.00 0.10 0.10 55 1010.4
20260509013503 45 268 2.0 3.0 0.00 0.10 0.10 52 1010.3
20260509013003 45 267 2.0 3.0 0.00 0.10 0.10 53 1010.4
20260509012503 45 267 3.0 4.0 0.00 0.10 0.10 54 1010.3
20260509012003 45 267 3.0 4.0 0.00 0.10 0.10 53 1010.1
20260509011503 45 271 2.0 4.0 0.00 0.10 0.10 51 1010.1
20260509011003 45 275 2.0 4.0 0.00 0.10 0.10 51 1010.1
20260509010503 45 276 2.0 3.0 0.00 0.10 0.10 52 1010.1
20260509010003 45 276 2.0 3.0 0.00 0.10 0.10 53 1009.9
20260509005503 45 281 2.0 4.0 0.00 0.10 0.10 54 1009.8
20260509005003 45 281 2.0 4.0 0.00 0.10 0.10 52 1009.6
20260509004503 45 274 2.0 4.0 0.00 0.10 0.10 52 1009.7
20260509004214 45 269 2.0 3.0 0.00 0.10 0.10 53 1009.6
20260509003713 46 269 2.0 3.0 0.00 0.10 0.10 53 1009.6
20260509003214 46 282 2.0 3.0 0.00 0.10 0.10 52 1009.5
20260509002503 46 281 2.0 4.0 0.00 0.10 0.10 53 1009.6
20260509002003 46 272 2.0 3.0 0.00 0.10 0.10 52 1009.5
20260509001503 46 272 2.0 4.0 0.00 0.10 0.10 52 1009.4
20260509001003 47 273 3.0 4.0 0.00 0.10 0.10 51 1009.5
20260509000503 47 275 2.0 4.0 0.00 0.10 0.10 50 1009.4
20260509000003 48 282 2.0 4.0 0.00 0.10 0.10 51 1009.4
20260508235503 48 296 2.0 4.0 0.00 0.10 0.10 49 1009.5
20260508235003 49 301 2.0 4.0 0.00 0.10 0.10 48 1009.3
20260508234712 49 301 2.0 4.0 0.00 0.10 0.10 47 1009.3
20260508234003 50 306 1.0 4.0 0.00 0.10 0.10 47 1009.2
20260508233503 50 313 1.0 3.0 0.00 0.10 0.10 43 1009.1
20260508233003 51 287 2.0 4.0 0.00 0.10 0.10 43 1009.0
20260508232503 51 302 2.0 4.0 0.00 0.10 0.10 45 1009.1
20260508232003 52 325 2.0 4.0 0.00 0.10 0.10 37 1009.0
20260508231503 53 320 1.0 3.0 0.00 0.10 0.10 37 1009.0
20260508231003 53 307 0.0 2.0 0.00 0.10 0.10 34 1009.1
20260508230503 53 219 1.0 6.0 0.00 0.10 0.10 36 1009.0
20260508230003 53 219 1.0 6.0 0.00 0.10 0.10 34 1009.0
20260508225503 54 266 0.0 6.0 0.00 0.10 0.10 37 1008.9
20260508225213 53 331 0.0 2.0 0.00 0.10 0.10 36 1009.0
20260508224503 53 332 1.0 4.0 0.00 0.10 0.10 37 1009.0
20260508224003 53 327 1.0 4.0 0.00 0.10 0.10 32 1009.0
20260508223503 53 228 1.0 3.0 0.00 0.10 0.10 34 1009.0
20260508223003 53 243 1.0 7.0 0.00 0.10 0.10 34 1008.9
20260508222503 53 265 2.0 7.0 0.00 0.10 0.10 36 1009.0
20260508222003 53 225 2.0 6.0 0.00 0.10 0.10 35 1009.0
20260508221503 53 224 3.0 6.0 0.00 0.10 0.10 36 1008.9
20260508221003 53 248 2.0 8.0 0.00 0.10 0.10 33 1009.0
20260508220503 53 202 3.0 10.0 0.00 0.10 0.10 34 1009.0
20260508220003 53 186 4.0 10.0 0.00 0.10 0.10 33 1009.0
20260508215503 53 237 3.0 9.0 0.00 0.10 0.10 35 1009.0
20260508215003 53 289 2.0 9.0 0.00 0.10 0.10 35 1009.1
20260508214503 53 299 2.0 6.0 0.00 0.10 0.10 35 1009.0
20260508214003 53 217 2.0 5.0 0.00 0.10 0.10 36 1009.0
20260508213503 53 243 3.0 7.0 0.00 0.10 0.10 34 1009.1
20260508213003 53 313 3.0 8.0 0.00 0.10 0.10 35 1009.1
20260508212714 53 343 2.0 8.0 0.00 0.10 0.10 35 1009.2
20260508212003 53 202 2.0 7.0 0.00 0.10 0.10 36 1009.2
20260508211503 53 257 2.0 8.0 0.00 0.10 0.10 33 1009.4
20260508211003 53 252 4.0 13.0 0.00 0.10 0.10 34 1009.3
20260508210503 53 268 4.0 13.0 0.00 0.10 0.10 33 1009.4
20260508210003 53 303 2.0 9.0 0.00 0.10 0.10 36 1009.3
20260508205503 53 247 1.0 5.0 0.00 0.10 0.10 34 1009.3
20260508205212 53 280 2.0 10.0 0.00 0.10 0.10 36 1009.3
20260508204503 53 293 2.0 10.0 0.00 0.10 0.10 41 1009.3
20260508204003 53 215 2.0 7.0 0.00 0.10 0.10 35 1009.3
20260508203503 53 230 3.0 11.0 0.00 0.10 0.10 35 1009.5
20260508203003 53 262 3.0 11.0 0.00 0.10 0.10 35 1009.4
20260508202503 53 277 4.0 13.0 0.00 0.10 0.10 33 1009.5
20260508202003 53 283 4.0 13.0 0.00 0.10 0.10 32 1009.6
20260508201503 54 319 5.0 12.0 0.00 0.10 0.10 35 1009.6
20260508201212 54 323 5.0 12.0 0.00 0.10 0.10 34 1009.6
20260508200503 54 322 5.0 12.0 0.00 0.10 0.10 34 1009.6
20260508200003 53 290 4.0 11.0 0.00 0.10 0.10 34 1009.7
20260508195503 53 290 3.0 12.0 0.00 0.10 0.10 36 1009.7
20260508195003 52 282 3.0 12.0 0.00 0.10 0.10 34 1009.8
20260508194503 52 256 4.0 9.0 0.00 0.10 0.10 35 1009.9
20260508194003 52 231 3.0 9.0 0.00 0.10 0.10 36 1010.0
20260508193503 52 229 2.0 9.0 0.00 0.10 0.10 32 1010.1
20260508193003 53 234 3.0 10.0 0.00 0.10 0.10 34 1010.1
20260508192503 53 248 3.0 10.0 0.00 0.10 0.10 37 1010.1
20260508192003 54 136 3.0 10.0 0.00 0.10 0.10 35 1010.3
20260508191503 53 188 3.0 10.0 0.00 0.10 0.10 41 1010.3
20260508191003 53 231 3.0 10.0 0.00 0.10 0.10 38 1010.4
20260508190503 52 276 3.0 10.0 0.00 0.10 0.10 37 1010.4
20260508190003 51 279 3.0 10.0 0.00 0.10 0.10 41 1010.4
20260508185503 51 289 4.0 10.0 0.00 0.10 0.10 42 1010.4
20260508185003 50 284 5.0 13.0 0.00 0.10 0.10 39 1010.6
20260508184503 51 268 4.0 16.0 0.00 0.10 0.10 40 1010.4
20260508184003 51 244 3.0 16.0 0.00 0.10 0.10 37 1010.5
20260508183713 51 249 3.0 10.0 0.00 0.10 0.10 45 1010.6
20260508183003 50 242 3.0 14.0 0.00 0.10 0.10 41 1010.6
20260508182503 51 215 3.0 14.0 0.00 0.10 0.10 41 1010.4
20260508182003 51 214 4.0 9.0 0.00 0.10 0.10 44 1010.5
20260508181503 51 234 4.0 9.0 0.00 0.10 0.10 43 1010.6
20260508181003 50 221 4.0 9.0 0.00 0.10 0.10 44 1010.6
20260508180503 50 199 5.0 11.0 0.00 0.10 0.10 44 1010.7
20260508180003 50 191 6.0 15.0 0.00 0.10 0.10 46 1010.7
20260508175503 50 194 5.0 15.0 0.00 0.10 0.10 46 1010.5
20260508175003 50 243 4.0 12.0 0.00 0.10 0.10 48 1010.7
20260508174503 49 225 4.0 14.0 0.00 0.10 0.10 53 1010.8
20260508174213 48 230 4.0 14.0 0.00 0.10 0.10 50 1010.9
20260508173503 47 246 4.0 14.0 0.00 0.10 0.10 51 1011.0
20260508173213 47 256 4.0 14.0 0.00 0.10 0.10 50 1010.9
20260508172503 47 281 4.0 13.0 0.00 0.10 0.10 48 1011.1
20260508172003 47 282 4.0 10.0 0.00 0.10 0.10 50 1011.2
20260508171712 47 287 3.0 10.0 0.00 0.10 0.10 50 1011.1
20260508171213 47 248 4.0 16.0 0.00 0.10 0.10 52 1011.4
20260508170503 48 217 7.0 16.0 0.00 0.10 0.10 51 1011.4
20260508170003 48 198 7.0 12.0 0.00 0.10 0.10 56 1011.5
20260508165503 47 202 6.0 12.0 0.00 0.10 0.10 56 1011.6
20260508165213 47 203 6.0 12.0 0.00 0.10 0.10 53 1011.5
20260508164503 46 202 5.0 12.0 0.00 0.10 0.10 58 1011.4
20260508164003 46 207 6.0 14.0 0.00 0.10 0.10 56 1011.4
20260508163503 46 201 5.0 14.0 0.00 0.10 0.10 57 1011.4
20260508163003 46 237 3.0 10.0 0.00 0.10 0.10 57 1011.5
20260508162503 44 273 4.0 10.0 0.00 0.10 0.10 57 1011.6
20260508162003 44 274 4.0 10.0 0.00 0.10 0.10 56 1011.8
20260508161714 44 275 5.0 13.0 0.00 0.10 0.10 57 1011.7
20260508161003 44 255 4.0 13.0 0.00 0.10 0.10 57 1011.8
20260508160714 44 225 4.0 11.0 0.00 0.10 0.10 56 1011.9
20260508160003 43 202 4.0 11.0 0.00 0.10 0.10 57 1011.9
20260508155503 43 197 4.0 11.0 0.00 0.10 0.10 56 1011.9
20260508155003 43 140 2.0 5.0 0.00 0.10 0.10 56 1011.8
20260508154503 43 99 2.0 6.0 0.00 0.10 0.10 55 1011.7
20260508154003 42 83 2.0 6.0 0.00 0.10 0.10 54 1011.8
20260508153503 42 68 2.0 4.0 0.00 0.10 0.10 56 1011.7
20260508153003 41 30 1.0 4.0 0.00 0.10 0.10 56 1011.8
20260508152503 41 209 1.0 6.0 0.00 0.10 0.10 55 1011.8
20260508152003 40 206 2.0 8.0 0.00 0.10 0.10 56 1011.7
20260508151503 40 141 3.0 8.0 0.00 0.10 0.10 56 1011.7
20260508151003 40 117 3.0 8.0 0.00 0.10 0.10 57 1011.7
20260508150503 40 106 3.0 7.0 0.00 0.10 0.10 57 1011.6
20260508150004 40 105 4.0 7.0 0.00 0.10 0.10 57 1011.6
20260508145503 40 106 4.0 7.0 0.00 0.10 0.10 56 1011.6
20260508145003 40 112 4.0 8.0 0.00 0.10 0.10 56 1011.6
20260508144713 40 117 4.0 8.0 0.00 0.10 0.10 56 1011.5
20260508144212 40 114 4.0 8.0 0.00 0.10 0.10 55 1011.6
20260508143713 40 98 4.0 8.0 0.00 0.10 0.10 55 1011.5
20260508143003 40 127 3.0 7.0 0.00 0.10 0.10 56 1011.5
20260508142503 40 160 3.0 7.0 0.01 0.10 0.10 55 1011.5
20260508142003 40 184 2.0 6.0 0.01 0.10 0.10 55 1011.3
20260508141503 40 240 1.0 5.0 0.01 0.10 0.10 56 1011.4
20260508141003 39 292 2.0 4.0 0.01 0.10 0.10 56 1011.4
20260508140503 39 280 1.0 4.0 0.02 0.10 0.10 56 1011.4
20260508140003 39 239 1.0 4.0 0.02 0.10 0.10 57 1011.4
20260508135713 39 256 2.0 4.0 0.03 0.10 0.10 58 1011.6
20260508135003 38 258 1.0 4.0 0.03 0.10 0.10 57 1011.5
20260508134503 38 220 0.0 3.0 0.03 0.10 0.10 58 1011.6
20260508134003 37 216 1.0 5.0 0.03 0.10 0.10 57 1011.6
20260508133713 37 206 1.0 5.0 0.03 0.10 0.10 57 1011.7
20260508133003 37 186 2.0 5.0 0.03 0.10 0.10 57 1011.9
20260508132503 37 199 1.0 5.0 0.02 0.09 0.09 57 1011.8
20260508132003 37 230 1.0 3.0 0.03 0.09 0.09 57 1011.6
20260508131503 37 244 1.0 2.0 0.03 0.09 0.09 57 1011.7
20260508131003 37 318 0.0 2.0 0.03 0.09 0.09 57 1011.7
20260508130503 37 325 0.0 1.0 0.02 0.08 0.08 57 1011.6
20260508130004 37 327 0.0 3.0 0.02 0.08 0.08 57 1011.5
20260508125503 37 306 1.0 3.0 0.02 0.07 0.07 57 1011.5
20260508125003 37 254 1.0 3.0 0.02 0.07 0.07 57 1011.4
20260508124503 37 221 0.0 2.0 0.03 0.07 0.07 57 1011.4
20260508124213 37 222 1.0 3.0 0.03 0.07 0.07 57 1011.5
20260508123503 37 240 1.0 4.0 0.05 0.07 0.07 57 1011.3
20260508123003 37 250 1.0 7.0 0.06 0.07 0.07 57 1011.2
20260508122503 37 249 2.0 7.0 0.07 0.07 0.07 57 1011.1
20260508122003 37 248 2.0 7.0 0.06 0.06 0.06 58 1011.0
20260508121503 37 256 2.0 7.0 0.06 0.06 0.06 58 1011.1
20260508121003 37 262 2.0 7.0 0.06 0.06 0.06 59 1011.0
20260508120503 37 256 2.0 7.0 0.06 0.06 0.06 59 1010.9
20260508120003 37 257 2.0 6.0 0.06 0.06 0.06 60 1011.0
20260508115503 37 264 1.0 6.0 0.05 0.05 0.05 60 1010.8
20260508115003 37 256 1.0 6.0 0.05 0.05 0.05 60 1010.8
20260508114503 37 258 2.0 7.0 0.04 0.04 0.04 59 1010.8
20260508114003 38 260 3.0 7.0 0.04 0.04 0.04 59 1010.8
20260508113503 38 257 1.0 7.0 0.02 0.02 0.02 59 1010.7
20260508113004 38 247 0.0 3.0 0.01 0.01 0.01 59 1010.6
20260508112503 38 209 0.0 1.0 0.00 0.00 0.00 59 1010.4
20260508112003 38 209 0.0 3.0 0.00 0.00 0.00 59 1010.1
20260508111503 38 209 1.0 3.0 0.00 0.00 0.00 58 1010.0
20260508111003 39 209 1.0 3.0 0.00 0.00 0.00 58 1010.0
20260508110503 39 212 1.0 3.0 0.00 0.00 0.00 58 1010.1
20260508110213 39 223 1.0 3.0 0.00 0.00 0.00 57 1010.2
20260508105503 39 196 3.0 6.0 0.00 0.00 0.00 58 1010.2
20260508105003 39 197 3.0 6.0 0.00 0.00 0.00 58 1010.1
20260508104503 39 207 2.0 4.0 0.00 0.00 0.00 57 1010.2
20260508104003 39 208 2.0 4.0 0.00 0.00 0.00 58 1010.1
20260508103503 39 211 1.0 4.0 0.00 0.00 0.00 58 1010.2
20260508103003 39 211 0.0 3.0 0.00 0.00 0.00 59 1010.2
20260508102503 39 0 0.0 0.0 0.00 0.00 0.00 58 1010.1
20260508102213 39 0 0.0 0.0 0.00 0.00 0.00 58 1010.1
20260508101503 39 0 0.0 0.0 0.00 0.00 0.00 58 1010.2
20260508101212 39 0 0.0 0.0 0.00 0.00 0.00 58 1010.2
20260508100503 39 211 0.0 3.0 0.00 0.00 0.00 58 1010.2
20260508100212 39 211 1.0 3.0 0.00 0.00 0.00 58 1010.1
20260508095503 39 206 1.0 3.0 0.00 0.00 0.00 58 1010.3
20260508095003 39 193 1.0 4.0 0.00 0.00 0.00 58 1010.4
20260508094503 39 187 2.0 4.0 0.00 0.00 0.00 58 1010.4
20260508094003 39 182 2.0 6.0 0.00 0.00 0.00 58 1010.4
20260508093503 39 180 2.0 6.0 0.00 0.00 0.00 58 1010.3
20260508093003 39 188 2.0 5.0 0.00 0.00 0.00 58 1010.4
20260508092503 38 193 2.0 5.0 0.00 0.00 0.00 59 1010.5
20260508092003 38 202 1.0 5.0 0.00 0.00 0.00 59 1010.6
20260508091713 38 206 1.0 5.0 0.00 0.00 0.00 59 1010.5
20260508091214 38 209 1.0 4.0 0.00 0.00 0.00 59 1010.6
20260508090503 38 214 1.0 4.0 0.00 0.00 0.00 59 1010.5
20260508090003 38 224 0.0 3.0 0.00 0.00 0.00 59 1010.5
20260508085713 38 242 0.0 2.0 0.00 0.00 0.00 59 1010.5
20260508085214 38 246 1.0 3.0 0.00 0.00 0.00 59 1010.5
20260508084503 38 258 0.0 3.0 0.00 0.00 0.00 59 1010.4
20260508084003 38 264 0.0 2.0 0.00 0.00 0.00 60 1010.3
20260508083503 37 260 1.0 3.0 0.00 0.00 0.00 60 1010.3
20260508083003 37 258 1.0 3.0 0.00 0.00 0.00 60 1010.4
20260508082503 37 256 1.0 3.0 0.00 0.00 0.00 60 1010.3
20260508082003 37 255 1.0 3.0 0.00 0.00 0.00 60 1010.2
20260508081503 37 255 1.0 3.0 0.00 0.00 0.00 60 1010.1
20260508081003 37 255 1.0 2.0 0.00 0.00 0.00 60 1010.0
20260508080503 37 256 0.0 2.0 0.00 0.00 0.00 61 1010.0
20260508080003 37 256 1.0 2.0 0.00 0.00 0.00 61 1010.0
20260508075503 37 255 1.0 3.0 0.00 0.00 0.00 61 1010.0
20260508075003 37 255 0.0 3.0 0.00 0.00 0.00 62 1010.1
20260508074503 37 255 0.0 2.0 0.00 0.00 0.00 61 1010.1
20260508074003 37 255 0.0 2.0 0.00 0.00 0.00 62 1010.0
20260508073503 37 255 0.0 2.0 0.00 0.00 0.00 62 1010.1
20260508073214 37 256 0.0 2.0 0.00 0.00 0.00 62 1010.1
20260508072503 37 256 0.0 3.0 0.00 0.00 0.00 62 1010.1
20260508072004 37 222 0.0 4.0 0.00 0.00 0.00 62 1010.1
20260508071503 38 227 1.0 4.0 0.00 0.00 0.00 61 1010.2
20260508071003 38 254 1.0 3.0 0.00 0.00 0.00 62 1010.4
20260508070503 38 255 1.0 3.0 0.00 0.00 0.00 62 1010.5
20260508070003 38 255 0.0 3.0 0.00 0.00 0.00 62 1010.2
20260508065503 38 264 1.0 7.0 0.00 0.00 0.00 62 1010.2
20260508065003 38 271 2.0 7.0 0.00 0.00 0.00 63 1010.3
20260508064503 38 275 1.0 3.0 0.00 0.00 0.00 63 1010.4
20260508064003 38 268 1.0 3.0 0.00 0.00 0.00 63 1010.5
20260508063503 39 261 1.0 3.0 0.00 0.00 0.00 63 1010.3
20260508063003 39 251 0.0 2.0 0.00 0.00 0.00 62 1010.2
20260508062503 40 252 0.0 2.0 0.00 0.00 0.00 62 1010.2
20260508062003 40 0 0.0 0.0 0.00 0.00 0.00 62 1010.4
20260508061503 40 251 0.0 2.0 0.00 0.00 0.00 62 1010.7
20260508061003 40 259 1.0 4.0 0.00 0.00 0.00 62 1010.6
20260508060712 40 256 1.0 4.0 0.00 0.00 0.00 62 1010.6
20260508060003 40 243 1.0 6.0 0.00 0.00 0.00 62 1010.5
20260508055714 40 249 1.0 6.0 0.00 0.00 0.00 63 1010.5
20260508055003 40 277 1.0 2.0 0.00 0.00 0.00 62 1010.5
20260508054714 40 277 0.0 2.0 0.00 0.00 0.00 62 1010.5